When you browse on this site, cookies collect data to enhance your experience and personalize the content and advertising you see.
Visit our Privacy Policy to learn more. By continuing to use the site, you agree to this use of cookies and data.
  • In Österreich
  • Länderverzeichnis
  • Für 7 Tage
  • Wassertemperatur
  • Satellitenkarten
  • Wetterkarte
  • News
  • Widgets
  • user-avatar
    Anmelden

    Stündliche Wetter Lubikowko

    Heute, 21 März, Donnerstag

    Zeit Temperatur Niederschläge Wind Luftdruck Luftfeuchtigkeit
    00:00 +7°C° 0 mm 3 m/S 768 mmHg 78%
    01:00 +7°C° 0 mm 3 m/S 768 mmHg 82%
    02:00 +6°C° 0 mm 2 m/S 768 mmHg 86%
    03:00 +6°C° 0 mm 2 m/S 768 mmHg 90%
    04:00 +6°C° 0 mm 2 m/S 768 mmHg 94%
    05:00 +6°C° 0 mm 2 m/S 768 mmHg 95%
    06:00 +6°C° 0 mm 2 m/S 768 mmHg 96%
    07:00 +6°C° 0 mm 2 m/S 769 mmHg 97%
    08:00 +7°C° 0 mm 3 m/S 769 mmHg 90%
    09:00 +9°C° 0 mm 3 m/S 769 mmHg 83%
    10:00 +11°C° 0 mm 4 m/S 769 mmHg 76%
    11:00 +11°C° 0 mm 4 m/S 769 mmHg 74%
    12:00 +12°C° 0 mm 4 m/S 769 mmHg 72%
    13:00 +12°C° 0 mm 4 m/S 768 mmHg 70%
    14:00 +13°C° 0 mm 4 m/S 768 mmHg 70%
    15:00 +13°C° 0 mm 3 m/S 768 mmHg 69%
    16:00 +13°C° 0 mm 3 m/S 768 mmHg 69%
    17:00 +13°C° 0 mm 3 m/S 768 mmHg 73%
    18:00 +12°C° 0 mm 3 m/S 768 mmHg 76%
    19:00 +12°C° 0 mm 2 m/S 767 mmHg 80%
    20:00 +12°C° 0 mm 2 m/S 768 mmHg 83%
    21:00 +10°C° 0 mm 2 m/S 768 mmHg 86%
    22:00 +10°C° 0 mm 2 m/S 768 mmHg 89%
    23:00 +9°C° 0 mm 2 m/S 768 mmHg 90%

    Morgen, 22 März, Freitag

    Zeit Temperatur Niederschläge Wind Luftdruck Luftfeuchtigkeit
    00:00 +9°C° 0 mm 2 m/S 768 mmHg 91%
    01:00 +9°C° 0 mm 2 m/S 768 mmHg 92%
    02:00 +9°C° 0 mm 2 m/S 768 mmHg 93%
    03:00 +9°C° 0 mm 2 m/S 768 mmHg 94%
    04:00 +10°C° 0 mm 1 m/S 768 mmHg 94%
    05:00 +10°C° 0 mm 1 m/S 768 mmHg 95%
    06:00 +9°C° 0 mm 1 m/S 768 mmHg 95%
    07:00 +9°C° 0 mm 1 m/S 768 mmHg 96%
    08:00 +11°C° 0 mm 1 m/S 768 mmHg 88%
    09:00 +12°C° 0 mm 1 m/S 768 mmHg 80%
    10:00 +14°C° 0 mm 1 m/S 769 mmHg 72%
    11:00 +15°C° 0 mm 1 m/S 768 mmHg 67%
    12:00 +16°C° 0 mm 1 m/S 768 mmHg 62%
    13:00 +19°C° 0 mm 1 m/S 768 mmHg 57%
    14:00 +19°C° 0 mm 1 m/S 767 mmHg 57%
    15:00 +19°C° 0 mm 1 m/S 767 mmHg 56%
    16:00 +17°C° 0 mm 0 m/S 767 mmHg 55%
    17:00 +18°C° 0 mm 1 m/S 766 mmHg 61%
    18:00 +15°C° 0 mm 1 m/S 766 mmHg 66%
    19:00 +14°C° 0 mm 1 m/S 766 mmHg 71%
    20:00 +13°C° 0 mm 2 m/S 766 mmHg 76%
    21:00 +13°C° 0 mm 2 m/S 766 mmHg 80%
    22:00 +12°C° 0 mm 2 m/S 766 mmHg 84%
    23:00 +10°C° 0 mm 2 m/S 766 mmHg 86%

    übermorgen, 23 März, Samstag

    Zeit Temperatur Niederschläge Wind Luftdruck Luftfeuchtigkeit
    00:00 +10°C° 0 mm 2 m/S 765 mmHg 88%
    01:00 +10°C° 0 mm 2 m/S 765 mmHg 90%
    02:00 +9°C° 0 mm 2 m/S 765 mmHg 91%
    03:00 +9°C° 0 mm 2 m/S 764 mmHg 91%
    04:00 +9°C° 0 mm 2 m/S 764 mmHg 91%
    05:00 +9°C° 0 mm 2 m/S 764 mmHg 90%
    06:00 +9°C° 0 mm 2 m/S 764 mmHg 89%
    07:00 +9°C° 0 mm 2 m/S 763 mmHg 87%
    08:00 +12°C° 0 mm 2 m/S 763 mmHg 78%
    09:00 +14°C° 0 mm 2 m/S 763 mmHg 70%
    10:00 +16°C° 0 mm 2 m/S 763 mmHg 61%
    11:00 +17°C° 0 mm 3 m/S 763 mmHg 57%
    12:00 +18°C° 0 mm 3 m/S 763 mmHg 53%
    13:00 +19°C° 0 mm 3 m/S 763 mmHg 50%
    14:00 +19°C° 0.1 mm 3 m/S 763 mmHg 52%
    15:00 +19°C° 0.1 mm 4 m/S 762 mmHg 53%
    16:00 +19°C° 0.1 mm 4 m/S 762 mmHg 55%
    17:00 +15°C° 0 mm 4 m/S 763 mmHg 62%
    18:00 +13°C° 0 mm 4 m/S 763 mmHg 69%
    19:00 +10°C° 0 mm 5 m/S 764 mmHg 76%
    20:00 +10°C° 0 mm 4 m/S 764 mmHg 74%
    21:00 +8°C° 0 mm 4 m/S 765 mmHg 72%
    22:00 +8°C° 0 mm 3 m/S 765 mmHg 69%
    23:00 +7°C° 0 mm 3 m/S 765 mmHg 66%

    24 März, Sonntag

    Zeit Temperatur Niederschläge Wind Luftdruck Luftfeuchtigkeit
    00:00 +5°C° 0 mm 3 m/S 765 mmHg 64%
    01:00 +5°C° 0 mm 3 m/S 766 mmHg 61%
    02:00 +5°C° 0 mm 2 m/S 766 mmHg 62%
    03:00 +5°C° 0 mm 2 m/S 766 mmHg 64%
    04:00 +4°C° 0 mm 2 m/S 766 mmHg 65%
    05:00 +4°C° 0 mm 2 m/S 766 mmHg 66%
    06:00 +4°C° 0 mm 2 m/S 766 mmHg 66%
    07:00 +4°C° 0 mm 2 m/S 766 mmHg 67%
    08:00 +5°C° 0 mm 2 m/S 766 mmHg 60%
    09:00 +7°C° 0 mm 2 m/S 766 mmHg 52%
    10:00 +8°C° 0 mm 2 m/S 765 mmHg 45%
    11:00 +9°C° 0 mm 2 m/S 765 mmHg 41%
    12:00 +10°C° 0 mm 2 m/S 764 mmHg 37%
    13:00 +12°C° 0 mm 1 m/S 764 mmHg 33%
    14:00 +12°C° 0 mm 1 m/S 763 mmHg 33%
    15:00 +12°C° 0 mm 1 m/S 763 mmHg 32%
    16:00 +12°C° 0 mm 1 m/S 762 mmHg 32%
    17:00 +11°C° 0 mm 1 m/S 762 mmHg 37%
    18:00 +9°C° 0 mm 2 m/S 762 mmHg 42%
    19:00 +7°C° 0 mm 2 m/S 762 mmHg 47%
    20:00 +7°C° 0 mm 2 m/S 761 mmHg 50%
    21:00 +7°C° 0 mm 1 m/S 761 mmHg 52%
    22:00 +7°C° 0 mm 1 m/S 761 mmHg 55%
    23:00 +7°C° 0 mm 1 m/S 760 mmHg 56%

    25 März, Montag

    Zeit Temperatur Niederschläge Wind Luftdruck Luftfeuchtigkeit
    00:00 +7°C° 0 mm 1 m/S 760 mmHg 58%
    01:00 +7°C° 0 mm 1 m/S 760 mmHg 59%
    02:00 +6°C° 0 mm 1 m/S 759 mmHg 61%
    03:00 +6°C° 0 mm 1 m/S 759 mmHg 63%
    04:00 +6°C° 0 mm 1 m/S 759 mmHg 65%
    05:00 +4°C° 0 mm 2 m/S 759 mmHg 67%
    06:00 +4°C° 0 mm 2 m/S 759 mmHg 69%
    07:00 +3°C° 0 mm 3 m/S 759 mmHg 70%
    08:00 +5°C° 0 mm 4 m/S 758 mmHg 62%
    09:00 +6°C° 0 mm 5 m/S 758 mmHg 54%
    10:00 +7°C° 0 mm 6 m/S 758 mmHg 45%
    11:00 +7°C° 0 mm 6 m/S 757 mmHg 49%
    12:00 +8°C° 0 mm 7 m/S 757 mmHg 53%
    13:00 +8°C° 0 mm 7 m/S 756 mmHg 56%
    14:00 +6°C° 0.5 mm 7 m/S 756 mmHg 59%
    15:00 +6°C° 0.5 mm 8 m/S 755 mmHg 62%
    16:00 +5°C° 0.5 mm 8 m/S 755 mmHg 65%
    17:00 +4°C° 0.3 mm 7 m/S 755 mmHg 66%
    18:00 +4°C° 0.3 mm 6 m/S 755 mmHg 67%
    19:00 +3°C° 0.3 mm 5 m/S 755 mmHg 67%
    20:00 +2°C° 0 mm 6 m/S 755 mmHg 69%
    21:00 +2°C° 0 mm 6 m/S 755 mmHg 70%
    22:00 +1°C° 0 mm 6 m/S 755 mmHg 72%
    23:00 0°C° 0 mm 7 m/S 754 mmHg 72%

    26 März, Dienstag

    Zeit Temperatur Niederschläge Wind Luftdruck Luftfeuchtigkeit
    00:00 0°C° 0 mm 7 m/S 754 mmHg 71%
    01:00 0°C° 0 mm 7 m/S 754 mmHg 71%
    02:00 0°C° 0 mm 8 m/S 754 mmHg 70%
    03:00 0°C° 0 mm 8 m/S 754 mmHg 68%
    04:00 -1°C° 0 mm 8 m/S 754 mmHg 66%
    05:00 -1°C° 0 mm 8 m/S 754 mmHg 63%
    06:00 -1°C° 0 mm 8 m/S 755 mmHg 59%
    07:00 -1°C° 0 mm 9 m/S 755 mmHg 56%
    08:00 0°C° 0 mm 9 m/S 756 mmHg 54%
    09:00 0°C° 0 mm 9 m/S 757 mmHg 51%
    10:00 0°C° 0 mm 9 m/S 757 mmHg 49%
    11:00 +1°C° 0 mm 9 m/S 758 mmHg 46%
    12:00 +1°C° 0 mm 9 m/S 759 mmHg 44%
    13:00 +2°C° 0 mm 9 m/S 759 mmHg 41%
    14:00 +2°C° 0 mm 8 m/S 760 mmHg 43%
    15:00 +2°C° 0 mm 8 m/S 760 mmHg 44%
    16:00 +1°C° 0 mm 8 m/S 761 mmHg 46%
    17:00 0°C° 0 mm 7 m/S 761 mmHg 49%
    18:00 +1°C° 0 mm 6 m/S 762 mmHg 52%
    19:00 0°C° 0 mm 5 m/S 763 mmHg 55%
    20:00 -1°C° 0 mm 5 m/S 763 mmHg 56%
    21:00 -1°C° 0 mm 5 m/S 763 mmHg 58%
    22:00 -1°C° 0 mm 5 m/S 764 mmHg 60%
    23:00 -2°C° 0 mm 4 m/S 764 mmHg 61%
    Mehr zeigen